Hazte SocioAcceso socios

METEO en el Aeródromo de Mutxamel (LEMU)

Horarios

ESTAMOS EN UTC +2

ORTO: 04:38 (UTC)
OCASO: 19:28 (UTC)

Previsión en los próximos días en Windy

METAR del Aeropuerto de Alicante (LEAL)

LEAL 200300Z 25003KT 210V280 CAVOK 20/15 Q1012 NOSIG

TAF del Aeropuerto de Alicante (LEAL)

TAF LEAL 192300Z 2000/2024 27005KT 9999 FEW020 TX31/2014Z TN19/2006Z PROB40 TEMPO 2000/2002 TS FEW050CB TEMPO 2005/2009 30010KT BECMG 2009/2012 17015KT BECMG 2018/2020 VRB03KT

Otros enlaces útiles

Renuncia de responsabilidad

La información meteorológica ofrecida en esta página es un servicio de cortesía del Club Deportivo ANR, basado en varias fuentes, y en ningún caso constituye una información oficial. Es responsabilidad del piloto al mando obtener la información meteorológica actualizada desde fuentes oficiales.

En España, la información meteorológica oficial la ofrece la Agencia Española de Meteorología en general y en particular, a través de su Autoservicio Meteorológico Aeronáutico.

Partida Almaina núm 92. 03110 Mutxamel (Alicante).España
info@clubdeportivoanr.com
Inscrito en registro EDCV número 11003/1
Inscrito en la RFAE número C-701
Asociado al Real Aero Club de España
Consulte nuestra política de privacidad